Weather History for Warrensburg, MO

Change the Weather History Date:

Wednesday, January 2, 2013

  Actual Average (KSZL) Record (KSZL)
Temperature  
Mean Temperature 22 °F -  
Max Temperature 33 °F 37 °F 68 °F (1997)
Min Temperature 10 °F 21 °F -9 °F (2001)
Degree Days  
Heating Degree Days 44    
Moisture  
Dew Point 17 °F    
Average Humidity 76    
Maximum Humidity 92    
Minimum Humidity 64    
Precipitation  
Precipitation 0.00 in - - ()
Sea Level Pressure  
Sea Level Pressure 30.20 in    
Wind  
Wind Speed 6 mph (SSW)    
Max Wind Speed 12 mph    
Max Gust Speed 18 mph    
Visibility 10 miles    
Events      
Averages and records for this station are not official NWS values.
T = Trace of Precipitation, MM = Missing Value Source: NWS Daily Summary

Daily Weather History Graph

Daily Weather History Graph

Search for Another Location

Airport:

Trip Planner

Search our weather history database for the weather conditions in past years. The results will help you decide how hot, cold, wet, or windy it might be!

Date:

Astronomy

Jan. 02, 2013 Rise Set
Actual Time 7:33 AM CST 5:05 PM CST
Civil Twilight 7:03 AM CST 5:35 PM CST
Nautical Twilight 6:30 AM CST 6:08 PM CST
Astronomical Twilight 5:58 AM CST 6:40 PM CST
Moon 10:34 PM CST 10:19 AM CST
Length of Visible Light 10h 31m
Length of Day
9h 31m
Waning Gibbous, 75% of the Moon is Illuminated
Jan 2
Waning Gibbous
Jan 4
Last Quarter
Jan 11
New
Jan 18
First Quarter
Jan 26
Full

Hourly Weather History & Observations

Time (CST) Temp. Windchill Dew Point Humidity Pressure Visibility Wind Dir Wind Speed Gust Speed Precip Events Conditions
12:15 AM 12.2 °F 4.3 °F 8.6 °F 85% 30.25 in 10.0 mi SSW 4.6 mph - N/A   Clear
12:55 AM 12.2 °F - 8.6 °F 85% 30.23 in 10.0 mi Calm Calm - N/A   Clear
1:15 AM 10.4 °F 0.8 °F 6.8 °F 85% 30.24 in 10.0 mi SW 5.8 mph - N/A   Clear
1:55 AM 12.2 °F 6.1 °F 8.6 °F 85% 30.24 in 10.0 mi South 3.5 mph - N/A   Clear
2:15 AM 12.2 °F 4.3 °F 8.6 °F 85% 30.25 in 10.0 mi South 4.6 mph - N/A   Clear
2:35 AM 10.4 °F 0.8 °F 8.6 °F 92% 30.25 in 10.0 mi South 5.8 mph - N/A   Clear
2:55 AM 12.2 °F 1.7 °F 8.6 °F 85% 30.24 in 10.0 mi South 6.9 mph - N/A   Clear
3:15 AM 12.2 °F 2.9 °F 8.6 °F 85% 30.24 in 10.0 mi South 5.8 mph - N/A   Clear
3:35 AM 12.2 °F 2.9 °F 8.6 °F 85% 30.23 in 10.0 mi South 5.8 mph - N/A   Clear
3:55 AM 12.2 °F 0.7 °F 8.6 °F 85% 30.24 in 10.0 mi SSW 8.1 mph - N/A   Clear
4:15 AM 14.0 °F 3.9 °F 8.6 °F 79% 30.23 in 10.0 mi South 6.9 mph - N/A   Clear
4:55 AM 12.2 °F 1.7 °F 8.6 °F 85% 30.22 in 10.0 mi South 6.9 mph - N/A   Clear
5:15 AM 12.2 °F 1.7 °F 8.6 °F 85% 30.22 in 10.0 mi South 6.9 mph - N/A   Clear
5:35 AM 12.2 °F 1.7 °F 8.6 °F 85% 30.21 in 10.0 mi South 6.9 mph - N/A   Clear
6:15 AM 14.0 °F 8.2 °F 8.6 °F 79% 30.20 in 10.0 mi South 3.5 mph - N/A   Clear
6:35 AM 12.2 °F 6.1 °F 8.6 °F 85% 30.20 in 10.0 mi SW 3.5 mph - N/A   Clear
6:55 AM 14.0 °F 6.5 °F 10.4 °F 86% 30.20 in 10.0 mi South 4.6 mph - N/A   Clear
7:15 AM 14.0 °F 2.9 °F 10.4 °F 86% 30.20 in 10.0 mi South 8.1 mph - N/A   Clear
7:35 AM 14.0 °F 3.9 °F 10.4 °F 86% 30.20 in 10.0 mi South 6.9 mph - N/A   Clear
7:55 AM 14.0 °F 2.9 °F 10.4 °F 86% 30.20 in 10.0 mi South 8.1 mph - N/A   Clear
8:15 AM 14.0 °F 8.2 °F 10.4 °F 86% 30.20 in 10.0 mi SSW 3.5 mph - N/A   Clear
8:35 AM 15.8 °F 7.2 °F 10.4 °F 79% 30.20 in 10.0 mi South 5.8 mph - N/A   Clear
8:55 AM 17.6 °F 8.2 °F 10.4 °F 73% 30.20 in 10.0 mi South 6.9 mph - N/A   Clear
9:15 AM 19.4 °F 10.4 °F 12.2 °F 74% 30.21 in 10.0 mi South 6.9 mph - N/A   Clear
9:35 AM 21.2 °F 10.9 °F 12.2 °F 68% 30.22 in 10.0 mi South 9.2 mph - N/A   Clear
9:55 AM 23.0 °F 13.9 °F 14.0 °F 68% 30.22 in 10.0 mi SSW 8.1 mph - N/A   Clear
10:15 AM 24.8 °F 15.3 °F 14.0 °F 64% 30.22 in 10.0 mi SSW 9.2 mph - N/A   Clear
10:35 AM 26.6 °F 16.8 °F 15.8 °F 64% 30.22 in 10.0 mi SSW 10.4 mph - N/A   Clear
10:55 AM 26.6 °F 16.8 °F 17.6 °F 69% 30.20 in 10.0 mi South 10.4 mph - N/A   Clear
11:15 AM 28.4 °F 19.7 °F 19.4 °F 69% 30.20 in 10.0 mi South 9.2 mph - N/A   Clear
11:35 AM 30.2 °F 21.3 °F 19.4 °F 64% 30.18 in 10.0 mi South 10.4 mph - N/A   Clear
11:55 AM 30.2 °F 21.9 °F 21.2 °F 69% 30.18 in 10.0 mi SSW 9.2 mph - N/A   Clear
12:15 PM 32.0 °F 23.6 °F 23.0 °F 69% 30.17 in 10.0 mi SSW 10.4 mph - N/A   Clear
12:35 PM 32.0 °F 23.6 °F 23.0 °F 69% 30.16 in 10.0 mi SSW 10.4 mph - N/A   Clear
12:55 PM 32.0 °F 24.8 °F 23.0 °F 69% 30.15 in 10.0 mi South 8.1 mph - N/A   Clear
1:15 PM 32.0 °F 23.6 °F 23.0 °F 69% 30.14 in 10.0 mi SSW 10.4 mph - N/A   Clear
1:35 PM 33.8 °F 26.4 °F 23.0 °F 65% 30.13 in 10.0 mi SW 9.2 mph - N/A   Clear
1:55 PM 33.8 °F 25.8 °F 23.0 °F 65% 30.13 in 10.0 mi SSW 10.4 mph - N/A   Clear
2:15 PM 33.8 °F 25.3 °F 23.0 °F 65% 30.13 in 10.0 mi SSW 11.5 mph 18.4 mph N/A   Clear
2:35 PM 33.8 °F 26.4 °F 23.0 °F 65% 30.13 in 10.0 mi SSW 9.2 mph - N/A   Clear
2:55 PM 33.8 °F 25.8 °F 23.0 °F 65% 30.13 in 10.0 mi SW 10.4 mph - N/A   Clear
3:15 PM 33.8 °F 25.8 °F 23.0 °F 65% 30.15 in 10.0 mi SSW 10.4 mph - N/A   Clear
3:35 PM 33.8 °F 26.4 °F 23.0 °F 65% 30.15 in 10.0 mi SSW 9.2 mph - N/A   Clear
3:55 PM 33.8 °F 26.4 °F 23.0 °F 65% 30.14 in 10.0 mi SSW 9.2 mph - N/A   Clear
4:35 PM 32.0 °F 25.6 °F 23.0 °F 69% 30.15 in 10.0 mi South 6.9 mph - N/A   Clear
4:55 PM 32.0 °F 26.4 °F 23.0 °F 69% 30.15 in 10.0 mi South 5.8 mph - N/A   Clear
5:15 PM 30.2 °F 24.3 °F 23.0 °F 75% 30.16 in 10.0 mi SSW 5.8 mph - N/A   Clear
5:35 PM 30.2 °F 24.3 °F 23.0 °F 75% 30.16 in 10.0 mi SSW 5.8 mph - N/A   Mostly Cloudy
5:55 PM 30.2 °F 24.3 °F 23.0 °F 75% 30.17 in 10.0 mi SSW 5.8 mph - N/A   Overcast
6:15 PM 30.2 °F 25.4 °F 24.8 °F 80% 30.17 in 10.0 mi SSW 4.6 mph - N/A   Overcast
6:35 PM 32.0 °F 27.5 °F 24.8 °F 75% 30.18 in 10.0 mi SW 4.6 mph - N/A   Overcast
6:55 PM 30.2 °F 24.3 °F 24.8 °F 80% 30.19 in 10.0 mi SW 5.8 mph - N/A   Mostly Cloudy
7:15 PM 30.2 °F 23.4 °F 24.8 °F 80% 30.20 in 10.0 mi WSW 6.9 mph - N/A   Mostly Cloudy
7:35 PM 30.2 °F 22.6 °F 24.8 °F 80% 30.20 in 10.0 mi WSW 8.1 mph - N/A   Mostly Cloudy
7:55 PM 30.2 °F 23.4 °F 24.8 °F 80% 30.20 in 10.0 mi WSW 6.9 mph - N/A   Overcast
8:15 PM 30.2 °F 22.6 °F 24.8 °F 80% 30.21 in 10.0 mi WSW 8.1 mph - N/A   Overcast
8:35 PM 30.2 °F 24.3 °F 23.0 °F 75% 30.21 in 10.0 mi WSW 5.8 mph - N/A   Overcast
8:55 PM 28.4 °F 22.2 °F 23.0 °F 80% 30.21 in 10.0 mi WSW 5.8 mph - N/A   Scattered Clouds
9:15 PM 28.4 °F 21.2 °F 21.2 °F 74% 30.22 in 10.0 mi WSW 6.9 mph - N/A   Clear
9:35 PM 28.4 °F 22.2 °F 21.2 °F 74% 30.23 in 10.0 mi WSW 5.8 mph - N/A   Clear
9:55 PM 26.6 °F 19.1 °F 21.2 °F 80% 30.23 in 10.0 mi WSW 6.9 mph - N/A   Clear
10:15 PM 26.6 °F 19.1 °F 21.2 °F 80% 30.24 in 10.0 mi WSW 6.9 mph - N/A   Clear
10:35 PM 26.6 °F 19.1 °F 19.4 °F 74% 30.24 in 10.0 mi West 6.9 mph - N/A   Clear
10:55 PM 26.6 °F 19.1 °F 19.4 °F 74% 30.24 in 10.0 mi West 6.9 mph - N/A   Clear
11:15 PM 24.8 °F 17.9 °F 19.4 °F 80% 30.24 in 10.0 mi West 5.8 mph - N/A   Clear
11:35 PM 24.8 °F 17.9 °F 19.4 °F 80% 30.25 in 10.0 mi WSW 5.8 mph - N/A   Scattered Clouds
11:55 PM 26.6 °F 21.2 °F 21.2 °F 80% 30.25 in 10.0 mi WSW 4.6 mph - N/A   Overcast